| time (UTC) | temp F | wind direction | speed knots | gust knots | rain 1hr in | rain 24hr in | rain mn in | humidity % | barometer mb |
| 20260509090506 | 63 | 171 | 0.0 | 1.7 | 0.00 | 0.00 | 0.00 | 68 | 1025.0 |
| 20260509085506 | 63 | 169 | 0.0 | 0.9 | 0.00 | 0.00 | 0.00 | 68 | 1024.8 |
| 20260509084506 | 63 | 170 | 0.9 | 1.7 | 0.00 | 0.00 | 0.00 | 67 | 1024.7 |
| 20260509082006 | 63 | 160 | 0.9 | 1.7 | 0.00 | 0.00 | 0.00 | 67 | 1024.5 |
| 20260509080506 | 64 | 178 | 0.9 | 1.7 | 0.00 | 0.00 | 0.00 | 67 | 1024.4 |
| 20260509075506 | 64 | 173 | 1.7 | 2.6 | 0.00 | 0.00 | 0.00 | 67 | 1024.2 |
| 20260509073506 | 64 | 179 | 1.7 | 2.6 | 0.00 | 0.00 | 0.00 | 67 | 1024.1 |
| 20260509073006 | 64 | 172 | 1.7 | 4.3 | 0.00 | 0.00 | 0.00 | 67 | 1024.0 |
| 20260509072506 | 64 | 164 | 2.6 | 2.6 | 0.00 | 0.00 | 0.00 | 67 | 1024.0 |
| 20260509071006 | 64 | 165 | 2.6 | 4.3 | 0.00 | 0.00 | 0.00 | 66 | 1023.8 |
| 20260509065006 | 65 | 159 | 4.3 | 6.1 | 0.00 | 0.00 | 0.00 | 65 | 1023.6 |
| 20260509064005 | 65 | 162 | 2.6 | 7.0 | 0.00 | 0.00 | 0.00 | 65 | 1023.6 |
| 20260509063006 | 65 | 158 | 2.6 | 6.1 | 0.00 | 0.00 | 0.00 | 63 | 1023.5 |
| 20260509062506 | 65 | 155 | 4.3 | 7.0 | 0.00 | 0.00 | 0.00 | 63 | 1023.5 |
| 20260509062006 | 65 | 180 | 3.5 | 10.4 | 0.00 | 0.00 | 0.00 | 63 | 1023.4 |
| 20260509061006 | 66 | 173 | 2.6 | 7.8 | 0.00 | 0.00 | 0.00 | 62 | 1023.3 |
| 20260509055506 | 66 | 174 | 1.7 | 5.2 | 0.00 | 0.00 | 0.00 | 62 | 1023.2 |
| 20260509054506 | 66 | 164 | 3.5 | 6.1 | 0.00 | 0.00 | 0.00 | 63 | 1023.1 |
| 20260509053506 | 66 | 176 | 4.3 | 7.8 | 0.00 | 0.00 | 0.00 | 62 | 1023.0 |
| 20260509052506 | 66 | 173 | 5.2 | 10.4 | 0.00 | 0.00 | 0.00 | 62 | 1023.0 |
| 20260509051506 | 66 | 169 | 5.2 | 10.4 | 0.00 | 0.00 | 0.00 | 63 | 1023.0 |
| 20260509050505 | 66 | 172 | 4.3 | 8.7 | 0.00 | 0.00 | 0.00 | 62 | 1023.0 |
| 20260509043506 | 66 | 175 | 5.2 | 11.3 | 0.00 | 0.00 | 0.00 | 60 | 1022.9 |
| 20260509043006 | 66 | 185 | 2.6 | 8.7 | 0.00 | 0.00 | 0.00 | 59 | 1022.9 |
| 20260509042506 | 66 | 175 | 4.3 | 11.3 | 0.00 | 0.00 | 0.00 | 59 | 1022.9 |
| 20260509041506 | 66 | 180 | 2.6 | 7.0 | 0.00 | 0.00 | 0.00 | 59 | 1022.9 |
| 20260509041006 | 66 | 174 | 1.7 | 7.0 | 0.00 | 0.00 | 0.00 | 59 | 1022.9 |
| 20260509031505 | 66 | 167 | 5.2 | 7.8 | 0.00 | 0.00 | 0.00 | 58 | 1023.0 |
| 20260509031006 | 66 | 159 | 2.6 | 7.8 | 0.00 | 0.00 | 0.00 | 58 | 1023.0 |
| 20260509030505 | 66 | 181 | 4.3 | 7.8 | 0.00 | 0.00 | 0.00 | 58 | 1023.1 |
| 20260509025006 | 67 | 169 | 4.3 | 7.0 | 0.00 | 0.00 | 0.00 | 57 | 1023.2 |
| 20260509023005 | 68 | 173 | 4.3 | 10.4 | 0.00 | 0.00 | 0.00 | 55 | 1023.5 |
| 20260509021506 | 67 | 172 | 3.5 | 7.8 | 0.00 | 0.00 | 0.00 | 55 | 1023.7 |
| 20260509021006 | 67 | 159 | 1.7 | 6.1 | 0.00 | 0.00 | 0.00 | 54 | 1023.7 |
| 20260509020505 | 67 | 160 | 4.3 | 7.0 | 0.00 | 0.00 | 0.00 | 56 | 1023.8 |
| 20260509020005 | 67 | 160 | 2.6 | 7.0 | 0.00 | 0.00 | 0.00 | 55 | 1023.9 |
| 20260509015505 | 67 | 163 | 1.7 | 5.2 | 0.00 | 0.00 | 0.00 | 55 | 1023.9 |
| 20260509015005 | 67 | 185 | 2.6 | 7.8 | 0.00 | 0.00 | 0.00 | 55 | 1024.0 |
| 20260509013505 | 69 | 164 | 0.0 | 5.2 | 0.00 | 0.00 | 0.00 | 52 | 1024.1 |
| 20260509012005 | 69 | 120 | 0.9 | 1.7 | 0.00 | 0.00 | 0.00 | 52 | 1024.2 |
| 20260509011005 | 68 | 124 | 0.9 | 2.6 | 0.00 | 0.00 | 0.00 | 54 | 1024.1 |
| 20260509010506 | 69 | 173 | 1.7 | 1.7 | 0.00 | 0.00 | 0.00 | 54 | 1024.2 |
| 20260509005006 | 69 | 48 | 0.9 | 1.7 | 0.00 | 0.00 | 0.00 | 53 | 1024.4 |
| 20260509004005 | 69 | 71 | 0.0 | 0.9 | 0.00 | 0.00 | 0.00 | 52 | 1024.4 |
| 20260509003505 | 68 | 161 | 0.9 | 1.7 | 0.00 | 0.00 | 0.00 | 53 | 1024.4 |
| 20260509002505 | 67 | 133 | 0.9 | 1.7 | 0.00 | 0.00 | 0.00 | 55 | 1024.4 |
| 20260509002006 | 66 | 103 | 0.9 | 1.7 | 0.00 | 0.00 | 0.00 | 56 | 1024.5 |
| 20260509001005 | 66 | 125 | 0.9 | 2.6 | 0.00 | 0.00 | 0.00 | 56 | 1024.5 |
| 20260509000506 | 65 | 163 | 0.9 | 2.6 | 0.00 | 0.00 | 0.00 | 57 | 1024.5 |
| 20260508235005 | 65 | 156 | 0.0 | 1.7 | 0.00 | 0.00 | 0.00 | 57 | 1024.5 |
| 20260508234005 | 65 | 118 | 0.9 | 2.6 | 0.00 | 0.00 | 0.00 | 58 | 1024.6 |
| 20260508233505 | 65 | 109 | 0.9 | 2.6 | 0.00 | 0.00 | 0.00 | 59 | 1024.6 |
| 20260508233005 | 64 | 90 | 0.9 | 2.6 | 0.00 | 0.00 | 0.00 | 60 | 1024.5 |
| 20260508231505 | 64 | 151 | 0.9 | 1.7 | 0.00 | 0.00 | 0.00 | 60 | 1024.5 |
| 20260508231005 | 63 | 107 | 0.9 | 2.6 | 0.00 | 0.00 | 0.00 | 61 | 1024.6 |
| 20260508230005 | 62 | 214 | 0.9 | 2.6 | 0.00 | 0.00 | 0.00 | 63 | 1024.5 |
| 20260508225505 | 62 | 161 | 0.9 | 1.7 | 0.00 | 0.00 | 0.00 | 64 | 1024.4 |
| 20260508224005 | 61 | 154 | 0.9 | 2.6 | 0.00 | 0.00 | 0.00 | 64 | 1024.4 |
| 20260508222506 | 60 | 148 | 0.9 | 2.6 | 0.00 | 0.00 | 0.00 | 66 | 1024.4 |
| 20260508220005 | 59 | 129 | 0.9 | 2.6 | 0.00 | 0.00 | 0.00 | 66 | 1024.2 |
| 20260508215505 | 59 | 136 | 0.9 | 2.6 | 0.00 | 0.00 | 0.00 | 67 | 1024.2 |
| 20260508212006 | 58 | 143 | 0.9 | 2.6 | 0.00 | 0.00 | 0.00 | 68 | 1023.7 |
| 20260508210005 | 56 | 171 | 1.7 | 5.2 | 0.00 | 0.00 | 0.00 | 70 | 1023.5 |
| 20260508205506 | 56 | 169 | 0.9 | 2.6 | 0.00 | 0.00 | 0.00 | 71 | 1023.4 |
| 20260508203505 | 57 | 161 | 0.9 | 2.6 | 0.00 | 0.00 | 0.00 | 71 | 1023.2 |
| 20260508202506 | 57 | 180 | 1.7 | 2.6 | 0.00 | 0.00 | 0.00 | 70 | 1023.0 |
| 20260508202005 | 57 | 293 | 1.7 | 2.6 | 0.00 | 0.00 | 0.00 | 70 | 1023.0 |
| 20260508201504 | 57 | 184 | 1.7 | 1.7 | 0.00 | 0.00 | 0.00 | 70 | 1023.0 |
| 20260508195504 | 57 | 141 | 0.9 | 1.7 | 0.00 | 0.00 | 0.00 | 70 | 1022.7 |
| 20260508193005 | 58 | 169 | 0.9 | 2.6 | 0.00 | 0.00 | 0.00 | 68 | 1022.4 |
| 20260508192504 | 58 | 177 | 0.9 | 2.6 | 0.00 | 0.00 | 0.00 | 68 | 1022.3 |
| 20260508192005 | 58 | 190 | 0.9 | 1.7 | 0.00 | 0.00 | 0.00 | 68 | 1022.3 |
| 20260508191005 | 58 | 161 | 0.9 | 1.7 | 0.00 | 0.00 | 0.00 | 68 | 1022.2 |
| 20260508190505 | 58 | 156 | 0.9 | 2.6 | 0.00 | 0.00 | 0.00 | 69 | 1022.1 |
| 20260508185005 | 57 | 151 | 0.9 | 1.7 | 0.00 | 0.00 | 0.00 | 68 | 1022.0 |
| 20260508183505 | 57 | 168 | 0.9 | 2.6 | 0.00 | 0.00 | 0.00 | 69 | 1022.0 |
| 20260508182505 | 58 | 171 | 0.9 | 1.7 | 0.00 | 0.00 | 0.00 | 68 | 1022.0 |
| 20260508182004 | 58 | 171 | 0.9 | 2.6 | 0.00 | 0.00 | 0.00 | 68 | 1021.9 |
| 20260508181505 | 58 | 166 | 0.9 | 2.6 | 0.00 | 0.00 | 0.00 | 68 | 1021.9 |
| 20260508175504 | 57 | 169 | 1.7 | 2.6 | 0.00 | 0.00 | 0.00 | 68 | 1021.7 |
| 20260508174005 | 57 | 152 | 1.7 | 2.6 | 0.00 | 0.00 | 0.00 | 68 | 1021.7 |
| 20260508173005 | 58 | 194 | 0.0 | 1.7 | 0.00 | 0.00 | 0.00 | 68 | 1021.7 |
| 20260508172505 | 58 | 160 | 1.7 | 2.6 | 0.00 | 0.00 | 0.00 | 68 | 1021.6 |
| 20260508172004 | 58 | 263 | 0.9 | 2.6 | 0.00 | 0.00 | 0.00 | 68 | 1021.7 |
| 20260508171005 | 58 | 111 | 0.9 | 1.7 | 0.00 | 0.00 | 0.00 | 68 | 1021.7 |
| 20260508170504 | 58 | 156 | 0.9 | 2.6 | 0.00 | 0.00 | 0.00 | 68 | 1021.7 |
| 20260508170005 | 58 | 170 | 0.9 | 1.7 | 0.00 | 0.00 | 0.00 | 68 | 1021.7 |
| 20260508165005 | 58 | 153 | 1.7 | 2.6 | 0.00 | 0.00 | 0.00 | 67 | 1021.7 |
| 20260508164505 | 58 | 146 | 0.9 | 1.7 | 0.00 | 0.00 | 0.00 | 67 | 1021.7 |
| 20260508161504 | 58 | 163 | 0.9 | 2.6 | 0.00 | 0.00 | 0.00 | 67 | 1021.5 |
| 20260508160504 | 58 | 162 | 0.9 | 2.6 | 0.00 | 0.00 | 0.00 | 67 | 1021.6 |
| 20260508160006 | 58 | 170 | 1.7 | 4.3 | 0.00 | 0.00 | 0.00 | 67 | 1021.5 |
| 20260508155007 | 58 | 164 | 1.7 | 2.6 | 0.00 | 0.00 | 0.00 | 67 | 1021.5 |
| 20260508153506 | 58 | 164 | 1.7 | 2.6 | 0.00 | 0.00 | 0.00 | 66 | 1021.6 |
| 20260508152506 | 58 | 146 | 1.7 | 2.6 | 0.00 | 0.00 | 0.00 | 66 | 1021.6 |
| 20260508151506 | 59 | 149 | 0.9 | 5.2 | 0.00 | 0.00 | 0.00 | 66 | 1021.6 |
| 20260508150506 | 58 | 158 | 1.7 | 5.2 | 0.00 | 0.00 | 0.00 | 66 | 1021.6 |
| 20260508150006 | 58 | 152 | 1.7 | 5.2 | 0.00 | 0.00 | 0.00 | 66 | 1021.6 |
| 20260508143007 | 59 | 183 | 0.9 | 1.7 | 0.00 | 0.00 | 0.00 | 66 | 1021.5 |
| 20260508142506 | 59 | 171 | 0.9 | 1.7 | 0.00 | 0.00 | 0.00 | 66 | 1021.5 |
| 20260508142006 | 59 | 162 | 1.7 | 2.6 | 0.00 | 0.00 | 0.00 | 66 | 1021.5 |
| 20260508135506 | 59 | 153 | 0.9 | 2.6 | 0.00 | 0.00 | 0.00 | 65 | 1021.5 |
| 20260508135007 | 59 | 147 | 1.7 | 4.3 | 0.00 | 0.00 | 0.00 | 65 | 1021.4 |
| 20260508134007 | 59 | 156 | 0.9 | 1.7 | 0.00 | 0.00 | 0.00 | 64 | 1021.4 |
| 20260508133506 | 59 | 183 | 0.9 | 2.6 | 0.00 | 0.00 | 0.00 | 64 | 1021.4 |
| 20260508131006 | 60 | 186 | 1.7 | 2.6 | 0.00 | 0.00 | 0.00 | 64 | 1021.3 |
| 20260508130506 | 60 | 162 | 0.9 | 1.7 | 0.00 | 0.00 | 0.00 | 63 | 1021.3 |
| 20260508130006 | 60 | 192 | 1.7 | 4.3 | 0.00 | 0.00 | 0.00 | 63 | 1021.3 |
| 20260508125507 | 60 | 225 | 0.9 | 2.6 | 0.00 | 0.00 | 0.00 | 63 | 1021.3 |
| 20260508125006 | 60 | 164 | 1.7 | 4.3 | 0.00 | 0.00 | 0.00 | 62 | 1021.3 |
| 20260508124506 | 60 | 151 | 1.7 | 4.3 | 0.00 | 0.00 | 0.00 | 62 | 1021.3 |
| 20260508122506 | 60 | 186 | 0.9 | 1.7 | 0.00 | 0.00 | 0.00 | 62 | 1021.3 |
| 20260508115007 | 60 | 162 | 0.9 | 4.3 | 0.00 | 0.00 | 0.00 | 62 | 1021.3 |
| 20260508113007 | 60 | 199 | 0.9 | 4.3 | 0.00 | 0.00 | 0.00 | 62 | 1021.1 |
| 20260508111506 | 60 | 201 | 1.7 | 2.6 | 0.00 | 0.00 | 0.00 | 63 | 1021.1 |
| 20260508111006 | 60 | 200 | 0.9 | 2.6 | 0.00 | 0.00 | 0.00 | 63 | 1021.0 |
| 20260508110006 | 60 | 232 | 1.7 | 2.6 | 0.00 | 0.00 | 0.00 | 62 | 1021.0 |
| 20260508104006 | 60 | 160 | 0.9 | 1.7 | 0.00 | 0.00 | 0.00 | 62 | 1020.7 |
| 20260508102506 | 60 | 177 | 0.9 | 2.6 | 0.00 | 0.00 | 0.00 | 62 | 1020.5 |
| 20260508102006 | 60 | 141 | 0.0 | 2.6 | 0.00 | 0.00 | 0.00 | 62 | 1020.4 |
| 20260508101007 | 61 | 213 | 0.9 | 1.7 | 0.00 | 0.00 | 0.00 | 62 | 1020.3 |
| 20260508095506 | 61 | 229 | 0.9 | 2.6 | 0.00 | 0.00 | 0.00 | 61 | 1020.3 |
| 20260508093506 | 61 | 189 | 0.9 | 2.6 | 0.00 | 0.00 | 0.00 | 60 | 1020.1 |
| 20260508092506 | 61 | 166 | 0.0 | 2.6 | 0.00 | 0.00 | 0.00 | 60 | 1020.0 |
| 20260508092007 | 61 | 144 | 0.9 | 1.7 | 0.00 | 0.00 | 0.00 | 60 | 1020.0 |
| 20260508091006 | 62 | 147 | 0.9 | 1.7 | 0.00 | 0.00 | 0.00 | 59 | 1019.7 |